STARLINK-1932 (46770 NORAD) Tracking and Keplerian Element Data

This shows tracking and keplerian element data for the satellite.

Feedback or suggestion? Click here.




ElementValue
Catalog46770
NameSTARLINK-1932
Epoch Orbit180
Epoch Day327.91667824
Epoch Year2020
RAAN16.7721
Inclination53.0567
Eccentricity0.0001253
Argument of Perigee77.2807
Mean Anonmoly132.5039
Mean Motion15.54679741
Decay Rate-0.01089538
L11 46770U 20074AH 20327.91667824 -.01089538 00000-0 -17815-1 0 9993
L22 46770 53.0567 16.7721 0001253 77.2807 132.5039 15.54679741 1809

Live tracking and technical data element details for STARLINK-1932 (NORAD 46770). STARLINK-1932 can be tracked NOW for your location showing map with azimuth and elevation plus other details from your city location.

Track the satellite on the map from your city or location and see movement details for azimuth, elevation, latitude, longitude, range, height, and movement on the map or in text.







IsCatalogInMostPopularTable: catalog: 46770, numindb: 6
Update: records affected: 1



GetName: 46770 STARLINK-1932

Hit Count: updated at: Tue, 24 Nov 2020 12:51:49 GMT